EDT,Max TemperatureF,Mean TemperatureF,Min TemperatureF,Max Dew PointF,MeanDew PointF,Min DewpointF,Max Humidity, Mean Humidity, Min Humidity, Max Sea Level PressureIn, Mean Sea Level PressureIn, Min Sea Level PressureIn, Max VisibilityMiles, Mean VisibilityMiles, Min VisibilityMiles, Max Wind SpeedMPH, Mean Wind SpeedMPH, Max Gust SpeedMPH,PrecipitationIn, CloudCover, Events, WindDirDegrees
2012-10-1,66,56,46,52,48,43,93,75,46,29.95,29.90,29.84,10,10,4,9,1,,0.00,0,,98
2012-10-2,69,63,57,61,56,50,94,82,64,29.90,29.85,29.80,10,10,5,13,6,17,0.18,8,Rain,27
2012-10-3,69,64,60,63,59,57,100,86,68,30.08,29.99,29.88,10,7,0,17,5,21,0.12,8,Fog-Rain,187
2012-10-4,75,68,60,61,57,52,88,71,44,30.10,30.06,30.00,10,10,10,17,10,22,0.00,1,,197
2012-10-5,69,58,46,59,49,43,93,72,59,30.07,30.02,29.97,10,10,5,12,7,18,0.23,6,Rain,256
2012-10-6,53,47,41,43,38,34,93,74,50,30.10,30.02,29.94,10,10,7,15,8,22,0.00,6,,255
2012-10-7,50,46,42,43,39,34,93,77,54,30.14,30.10,30.07,10,10,5,8,4,,0.00,7,Rain,272
2012-10-8,55,47,39,39,35,30,93,64,38,30.21,30.16,30.11,10,10,10,16,7,20,0.00,2,,210
2012-10-9,60,52,44,45,40,36,87,62,39,30.13,30.02,29.86,10,10,10,20,11,23,0.00,0,,195
2012-10-10,53,46,39,45,36,27,87,66,43,30.17,29.95,29.79,10,10,7,20,13,31,0.06,6,Rain,265
2012-10-11,60,48,37,39,30,25,75,53,25,30.20,30.13,30.03,10,10,10,22,8,32,0.00,1,,230
2012-10-12,51,44,37,39,32,21,87,61,30,30.42,30.34,30.15,10,10,10,14,8,21,0.00,2,,340
2012-10-13,60,49,39,55,42,34,94,72,58,30.38,30.16,29.91,10,10,5,16,7,20,0.20,5,Rain,158
2012-10-14,68,62,57,61,57,52,94,83,68,29.90,29.70,29.45,10,8,3,24,12,40,0.03,5,Rain,192
2012-10-15,60,54,48,52,43,39,82,70,58,29.92,29.76,29.50,10,10,10,21,14,34,0.00,8,,277
2012-10-16,55,47,39,48,40,34,87,69,58,29.98,29.89,29.76,10,10,10,13,6,17,0.00,3,,176
2012-10-17,64,60,55,55,50,45,94,73,59,29.79,29.68,29.56,10,10,10,16,11,23,0.03,5,Rain,168
2012-10-18,62,56,51,54,45,32,88,65,34,29.67,29.54,29.41,10,10,10,29,12,36,0.07,4,Rain,180
2012-10-19,55,50,46,46,44,39,93,74,58,29.65,29.59,29.55,10,10,10,21,13,25,0.19,7,Rain,185
2012-10-20,55,50,46,46,44,43,93,81,63,29.90,29.71,29.58,10,10,4,14,8,18,0.03,7,Rain,243
2012-10-21,57,50,42,48,44,39,93,80,59,30.09,30.04,29.91,10,9,4,13,4,,0.00,1,,205
2012-10-22,64,55,46,55,50,45,94,77,56,30.09,30.04,29.96,10,10,1,12,4,,0.00,1,Rain,157
2012-10-23,69,63,57,57,56,54,94,81,64,30.00,29.96,29.91,10,9,2,16,5,16,0.32,6,Rain,203
2012-10-24,71,64,57,59,57,55,94,79,60,30.03,30.00,29.97,10,9,5,13,5,,0.00,3,Rain,170
2012-10-25,69,63,57,57,55,54,88,77,60,30.01,29.94,29.87,10,10,10,12,8,,0.00,0,,172
2012-10-26,68,57,46,55,43,34,93,73,58,30.22,30.11,29.87,10,10,5,20,10,28,0.09,7,Rain,330
2012-10-27,53,48,44,39,34,30,71,60,41,30.19,30.15,30.10,10,10,5,20,11,24,0.00,6,,4
2012-10-28,48,44,41,36,31,28,76,60,50,30.17,30.12,30.07,10,10,10,24,14,33,0.01,6,Rain,2
2012-10-29,42,40,39,37,34,30,81,75,61,30.06,29.91,29.64,10,10,7,32,20,47,0.05,8,Rain,348
2012-10-30,46,42,37,39,36,34,93,84,71,29.62,29.44,29.37,10,8,4,30,23,39,0.25,8,Rain-Snow,336
2012-10-31,42,40,37,39,36,34,93,84,76,29.64,29.55,29.46,10,9,4,21,16,29,0.05,8,Rain,305